Weather History for Cozumel, Mexico

Change the Weather History Date:

Friday, December 27, 2013

  Actual Average Record
Temperature  
Mean Temperature 70 °F -  
Max Temperature 77 °F 80 °F 87 °F (1997)
Min Temperature 64 °F 69 °F 60 °F (2010)
Cooling Degree Days 6    
Growing Degree Days 20 (Base 50)    
Moisture  
Dew Point 69 °F    
Average Humidity 97    
Maximum Humidity 100    
Minimum Humidity 78    
Precipitation  
Precipitation 0.65 in - - ()
Sea Level Pressure  
Sea Level Pressure 30.01 in    
Wind  
Wind Speed 3 mph ()    
Max Wind Speed 17 mph    
Max Gust Speed -    
Visibility 6.2 miles    
Events Rain    
Averages and records for this station are not official NWS values.
T = Trace of Precipitation, MM = Missing Value Source: Averaged Metar Reports

Daily Weather History Graph

Daily Weather History Graph

Search for Another Location

Airport:

Trip Planner

Search our weather history database for the weather conditions in past years. The results will help you decide how hot, cold, wet, or windy it might be!

Date:

Astronomy

Dec. 27, 2013 Rise Set
Actual Time 6:22 AM CST 5:15 PM CST
Civil Twilight 5:57 AM CST 5:40 PM CST
Nautical Twilight 5:30 AM CST 6:07 PM CST
Astronomical Twilight 5:03 AM CST 6:34 PM CST
Moon 1:17 AM CST (12/27) 1:04 PM CST (12/27)
Length of Visible Light 11h 42m
Length of Day
10h 53m
Waning Crescent, 28% of the Moon is Illuminated
Dec 27
Waning Crescent
Jan 1
New
Jan 7
First Quarter
Jan 15
Full
Jan 23
Last Quarter

Hourly Weather History & Observations

Time (CST) Temp. Dew Point Humidity Pressure Visibility Wind Dir Wind Speed Gust Speed Precip Events Conditions
12:42 AM 68.0 °F 68.0 °F 100% 30.03 in 7.0 mi Calm Calm - N/A   Scattered Clouds
1:47 AM 66.2 °F 66.2 °F 100% 30.01 in 7.0 mi East 3.5 mph - N/A   Scattered Clouds
2:53 AM 64.4 °F 64.4 °F 100% 30.03 in 7.0 mi Calm Calm - N/A   Scattered Clouds
4:42 AM 64.4 °F 64.4 °F 100% 30.01 in 7.0 mi Calm Calm - N/A   Partly Cloudy
5:48 AM 64.4 °F 64.4 °F 100% 30.01 in 7.0 mi Calm Calm - N/A   Partly Cloudy
6:43 AM 64.4 °F 64.4 °F 100% 30.04 in 7.0 mi Calm Calm - N/A   Mostly Cloudy
7:47 AM 71.6 °F 69.8 °F 94% 30.06 in 8.0 mi ENE 4.6 mph - N/A   Mostly Cloudy
8:51 AM 77.0 °F 69.8 °F 78% 30.09 in 8.0 mi ENE 10.4 mph - N/A   Mostly Cloudy
9:41 AM 77.0 °F 69.8 °F 78% 30.07 in 8.0 mi ENE 11.5 mph - N/A   Mostly Cloudy
10:47 AM 71.6 °F 69.8 °F 94% 30.05 in 8.0 mi East 5.8 mph - N/A   Mostly Cloudy
11:48 AM 73.4 °F 69.8 °F 88% 30.03 in 8.0 mi ENE 5.8 mph - N/A   Mostly Cloudy
12:42 PM 75.2 °F 71.6 °F 89% 29.99 in 8.0 mi NNE 5.8 mph - N/A   Mostly Cloudy
1:02 PM 73.4 °F 71.6 °F 94% 29.99 in 3.0 mi Calm Calm - N/A Rain Rain
1:46 PM 71.6 °F 71.6 °F 100% 29.96 in 2.0 mi East 6.9 mph - N/A Rain Light Rain
2:42 PM 69.8 °F 69.8 °F 100% 30.02 in 3.0 mi Calm Calm - N/A Rain Light Rain
3:40 PM 69.8 °F 69.8 °F 100% 29.98 in 5.0 mi North 6.9 mph - N/A Rain Light Rain
4:46 PM 69.8 °F 69.8 °F 100% 29.97 in 0.5 mi NE 17.3 mph - N/A Rain Heavy Rain
5:50 PM 69.8 °F 69.8 °F 100% 29.97 in 7.0 mi NNE 6.9 mph - N/A Rain Light Rain
6:45 PM 69.8 °F 69.8 °F 100% 30.00 in 7.0 mi NE 3.5 mph - N/A   Overcast
7:41 PM 69.8 °F 69.8 °F 100% 30.00 in 7.0 mi Calm Calm - N/A   Overcast
8:55 PM 69.8 °F 69.8 °F 100% 30.03 in 7.0 mi Calm Calm - N/A   Mostly Cloudy
9:48 PM 69.8 °F 69.8 °F 100% 30.01 in 7.0 mi Calm Calm - N/A   Overcast
9:58 PM 69.8 °F 69.8 °F 100% 30.01 in 3.0 mi SSW 4.6 mph - N/A Rain Rain
10:40 PM 68.0 °F 68.0 °F 100% 29.98 in 6.0 mi Calm Calm - N/A   Mostly Cloudy
11:48 PM 68.0 °F 68.0 °F 100% 30.01 in 7.0 mi Calm Calm - N/A   Partly Cloudy